Regional Weather Roundup
Issued by NWS Newport/Morehead, NC

Current Version | Previous Version | Graphics & Text | Print | Product List | Glossary Off
Versions: 1 2 3 4 5 6 7 8 9 10 11 12 13 14 15 16 17 18 19 20 21 22 23 24 25 26 27 28 29 30 31 32 33 34 35 36 37 38 39 40 41 42 43 44 45 46 47 48 49 50

000
ASUS42 KMHX 250012
RWRMHX
WEATHER ROUNDUP FOR EASTERN NORTH CAROLINA
NATIONAL WEATHER SERVICE NEWPORT/MOREHEAD CITY NC
800 PM EDT FRI APR 24 2015

NOTE: "FAIR" INDICATES FEW OR NO CLOUDS BELOW 12,000 FEET
WITH NO SIGNIFICANT WEATHER AND/OR OBSTRUCTIONS TO VISIBILITY

NCZ015>017-031-032-045>047-102-103-250100-
NORTH COAST

CITY           SKY/WX    TMP DP  RH WIND       PRES   REMARKS
EDENTON        PTCLDY    60  29  31 W3        29.95R
ELIZABETH CITY PTCLDY    55  32  41 SW7       29.95S
KITTY HAWK     CLEAR     49  39  66 SE6       29.95S
MANTEO         PTCLDY    49  40  71 SE6       29.97R

$$

NCZ045>047-081-094-103-104-250100-
CENTRAL COAST

CITY           SKY/WX    TMP DP  RH WIND       PRES   REMARKS
FRISCO         CLEAR     51  39  63 SE6       29.96F
SWANQUARTER      N/A     61 N/A N/A W8        29.91S

$$

NCZ095-097-098-100-101-250100-
SOUTHERN COAST

CITY           SKY/WX    TMP DP  RH WIND       PRES   REMARKS
BEAUFORT       CLEAR     60  44  55 SW8       29.97S
CEDAR ISLAND     N/A     63 N/A N/A W3G9      30.00S
JACKSONVILLE   MOCLDY    58  37  45 CALM      29.97S
PINEY ISLAND   PTCLDY   N/A N/A N/A W7        29.96S
WILMINGTON     PTCLDY    61  42  49 S10       29.98R


$$

NCZ011>013-027>030-043-044-078>080-089-090>093-098-250100-
COASTAL PLAIN

CITY           SKY/WX    TMP DP  RH WIND       PRES   REMARKS
AHOSKIE        PTCLDY    53  38  58 CALM      29.95R
CLINTON        MOCLDY    59  43  55 CALM      29.98R
ELIZABETHTOWN  MOCLDY    62  41  45 CALM      29.98R
GOLDSBORO      PTCLDY    62  30  29 CALM      29.95R
GREENVILLE     PTCLDY    55  39  54 CALM      29.98R
HAVELOCK       PTCLDY    61  29  29 NW6       29.97F
KENANSVILLE    MOCLDY    56  39  53 CALM      29.98S
KINSTON        PTCLDY    55  45  67 SW3       29.97R
NEW BERN       PTCLDY    57  36  45 CALM      29.98S
RICHLANDS      MOCLDY    57  39  51 CALM      29.98S
ROCKY MOUNT    PTCLDY    55  40  56 CALM      29.96R
WASHINGTON     PTCLDY    56  32  40 CALM      29.97R
WHITEVILLE     PTCLDY    63  37  37 CALM      29.98R

$$

AMZ130-135-150-152-154-156-158-170-250-252-270-ANZ085-086-088-633-658-670-250100-
MARINE OBSERVATIONS

STATION/POSITION TIME  TEMP    WIND        PRES    WAVE   SWELL
                       AIR SEA DIR/SP/G            HT/PER HT/PER
                 (UTC) (F)     (DEG/KT/KT) (MB)    (FT/S) (FT/S)
CHESAPEAKE LIGHT 0000   52      90/  8/  8 1014.4
64 E VA BEACH    2350   53 63   10/ 12/ 14 1013.5    5/ 7   3/ 7
DUCK             2300   52 56  110/  8/ 10 1013.2
2 E DUCK         2311      55                N/A     4/ 6   2/13
10 NE DUCK       NOT AVBL
OREGON INLET     2300   50 56  130/  5/  8 1014.8
HATTERAS CG      2300   57 66  130/  5/  7 1014.0
DIAMOND BUOY     2350   58 73  180/  2/  4 1015.0    5/ 8   5/ 8
CAPE LOOKOUT     0000   60     230/  5/  6 1014.6
BEAUFORT LAB     2300   62 66  210/  5/  8 1014.0
27 SE WRIGHTSVLE 2300   61 71  250/ 10/ 10   N/A
5 SE WRIGHTSVLE  2308   62 66  220/ 14/ 19 1015.2
225 S CAPE HAT   2350   63 71  360/ 10/ 14 1016.2    7/ 7   7/ 7
41 SE CHARLESTON 2350   65 71  170/  6/  8 1016.8    4/ 8   3/ 8

$$



USA.gov is the U.S. government's official web portal to all federal, state and local government web resources and services.